IZ5MMH-4 Weather Reports


Display with metric or nautical units.
time (UTC)temp
F
wind
direction
speed
MPH
gust
MPH
rain 1hr
in
rain 24hr
in
rain mn
in
humidity
%
barometer
mb
20260507213437 65 0.0 0.0 0.00 0.00 0.00 54 1015.1
20260507212437 65 0.0 0.0 0.00 0.00 0.00 54 1015.0
20260507211437 65 0.0 0.0 0.00 0.00 0.00 55 1015.0
20260507210438 65 0.0 0.0 0.00 0.00 0.00 54 1015.1
20260507205437 65 0.0 0.0 0.00 0.00 0.00 54 1015.0
20260507204437 65 0.0 0.0 0.00 0.00 0.00 53 1015.0
20260507203438 65 0.0 0.0 0.00 0.00 0.00 52 1015.0
20260507202438 65 0.0 0.0 0.00 0.00 0.00 52 1015.0
20260507201437 66 0.0 0.0 0.00 0.00 0.00 52 1015.1
20260507200437 66 0.0 0.0 0.00 0.00 0.00 52 1015.0
20260507195437 66 0.0 0.0 0.00 0.00 0.00 54 1014.9
20260507194440 66 0.0 0.0 0.00 0.00 0.00 56 1014.9
20260507193438 66 0.0 0.0 0.00 0.00 0.00 57 1014.9
20260507192438 67 0.0 0.0 0.00 0.00 0.00 57 1015.1
20260507191437 67 0.0 0.0 0.00 0.00 0.00 57 1014.9
20260507190437 68 0.0 0.0 0.00 0.00 0.00 57 1014.9
20260507185438 68 0.0 0.0 0.00 0.00 0.00 57 1014.9
20260507184438 69 0.0 0.0 0.00 0.00 0.00 56 1014.9
20260507183437 69 0.0 0.0 0.00 0.00 0.00 55 1014.9
20260507182438 70 0.0 0.0 0.00 0.00 0.00 53 1014.8
20260507181438 70 0.0 0.0 0.00 0.00 0.00 51 1014.9
20260507180438 71 0.0 0.0 0.00 0.00 0.00 50 1014.9
20260507175437 71 0.0 0.0 0.00 0.00 0.00 50 1014.8
20260507174438 71 0.0 0.0 0.00 0.00 0.00 48 1014.8
20260507173438 72 0.0 0.0 0.00 0.00 0.00 47 1014.7
20260507172438 72 0.0 0.0 0.00 0.00 0.00 46 1014.7
20260507171437 73 0.0 0.0 0.00 0.00 0.00 44 1014.7
20260507170438 73 0.0 0.0 0.00 0.00 0.00 44 1014.7
20260507165437 74 0.0 0.0 0.00 0.00 0.00 44 1014.6
20260507164438 74 0.0 0.0 0.00 0.00 0.00 45 1014.7
20260507163438 74 0.0 0.0 0.00 0.00 0.00 44 1014.6
20260507162438 74 0.0 0.0 0.00 0.00 0.00 44 1014.5
20260507161437 75 0.0 0.0 0.00 0.00 0.00 44 1014.5
20260507160437 76 0.0 0.0 0.00 0.00 0.00 43 1014.7
20260507155438 77 0.0 0.0 0.00 0.00 0.00 43 1014.6
20260507154438 76 0.0 0.0 0.00 0.00 0.00 43 1014.6
20260507153438 76 0.0 0.0 0.00 0.00 0.00 43 1014.7
20260507152437 76 0.0 0.0 0.00 0.00 0.00 43 1014.6
20260507151438 75 0.0 0.0 0.00 0.00 0.00 44 1014.6
20260507150438 75 0.0 0.0 0.00 0.00 0.00 44 1014.8
20260507145437 74 0.0 0.0 0.00 0.00 0.00 45 1014.8
20260507144438 74 0.0 0.0 0.00 0.00 0.00 44 1015.0
20260507143437 74 0.0 0.0 0.00 0.00 0.00 44 1015.0
20260507142438 74 0.0 0.0 0.00 0.00 0.00 44 1015.0
20260507141438 74 0.0 0.0 0.00 0.00 0.00 42 1015.2
20260507140437 73 0.0 0.0 0.00 0.00 0.00 44 1015.1
20260507135437 73 0.0 0.0 0.00 0.00 0.00 42 1015.4
20260507134438 73 0.0 0.0 0.00 0.00 0.00 44 1015.4
20260507133437 73 0.0 0.0 0.00 0.00 0.00 43 1015.5
20260507132437 73 0.0 0.0 0.00 0.00 0.00 41 1015.8
20260507131438 73 0.0 0.0 0.00 0.00 0.00 43 1015.8
20260507130438 73 0.0 0.0 0.00 0.00 0.00 41 1015.9
20260507125437 73 0.0 0.0 0.00 0.00 0.00 44 1015.9
20260507124437 73 0.0 0.0 0.00 0.00 0.00 43 1015.9
20260507123437 73 0.0 0.0 0.00 0.00 0.00 45 1016.0
20260507122437 73 0.0 0.0 0.00 0.00 0.00 43 1016.0
20260507121437 74 0.0 0.0 0.00 0.00 0.00 42 1016.0
20260507120438 73 0.0 0.0 0.00 0.00 0.00 48 1016.0
20260507114438 73 0.0 0.0 0.00 0.00 0.00 48 1015.9
20260507113438 72 0.0 0.0 0.00 0.00 0.00 50 1016.0
20260507112438 71 0.0 0.0 0.00 0.00 0.00 50 1016.2
20260507111438 70 0.0 0.0 0.00 0.00 0.00 53 1016.3
20260507110438 70 0.0 0.0 0.00 0.00 0.00 54 1016.3
20260507105438 70 0.0 0.0 0.00 0.00 0.00 50 1016.4
20260507104437 69 0.0 0.0 0.00 0.00 0.00 53 1016.4
20260507103437 69 0.0 0.0 0.00 0.00 0.00 57 1016.4
20260507102438 69 0.0 0.0 0.00 0.00 0.00 55 1016.4
20260507101438 69 0.0 0.0 0.00 0.00 0.00 61 1016.5
20260507100438 68 0.0 0.0 0.00 0.00 0.00 51 1016.6
20260507095437 68 0.0 0.0 0.00 0.00 0.00 54 1016.6
20260507094438 68 0.0 0.0 0.00 0.00 0.00 61 1016.5
20260507093438 67 0.0 0.0 0.00 0.00 0.00 58 1016.4
20260507092437 68 0.0 0.0 0.00 0.00 0.00 57 1016.3
20260507091437 67 0.0 0.0 0.00 0.00 0.00 56 1016.2
20260507090437 67 0.0 0.0 0.00 0.00 0.00 57 1016.3
20260507085438 66 0.0 0.0 0.00 0.00 0.00 59 1016.3
20260507084437 66 0.0 0.0 0.00 0.00 0.00 61 1016.4
20260507083437 65 0.0 0.0 0.00 0.00 0.00 63 1016.4
20260507082437 65 0.0 0.0 0.00 0.00 0.00 67 1016.4
20260507081437 65 0.0 0.0 0.00 0.00 0.00 71 1016.2
20260507080437 64 0.0 0.0 0.00 0.00 0.00 75 1016.3
20260507075437 64 0.0 0.0 0.00 0.00 0.00 76 1016.3
20260507074438 64 0.0 0.0 0.00 0.00 0.00 80 1016.4
20260507073437 64 0.0 0.0 0.00 0.00 0.00 81 1016.4
20260507072438 63 0.0 0.0 0.00 0.00 0.00 82 1016.4
20260507071437 63 0.0 0.0 0.00 0.00 0.00 83 1016.3
20260507070438 63 0.0 0.0 0.00 0.00 0.00 86 1016.3
20260507065438 63 0.0 0.0 0.00 0.00 0.00 88 1016.2
20260507064438 63 0.0 0.0 0.00 0.00 0.00 90 1016.2
20260507063438 62 0.0 0.0 0.00 0.00 0.00 90 1016.1
20260507062437 62 0.0 0.0 0.00 0.00 0.00 90 1016.1
20260507061438 62 0.0 0.0 0.00 0.00 0.00 90 1015.8
20260507060437 61 0.0 0.0 0.00 0.00 0.00 90 1015.9
20260507055437 61 0.0 0.0 0.00 0.00 0.00 91 1015.8
20260507054437 61 0.0 0.0 0.00 0.00 0.00 90 1015.7
20260507053437 61 0.0 0.0 0.00 0.00 0.00 90 1015.7
20260507052437 60 0.0 0.0 0.00 0.00 0.00 89 1015.6
20260507051437 60 0.0 0.0 0.00 0.00 0.00 89 1015.6
20260507050438 60 0.0 0.0 0.00 0.00 0.00 88 1015.4
20260507045438 60 0.0 0.0 0.00 0.00 0.00 88 1015.3
20260507044437 60 0.0 0.0 0.00 0.00 0.00 88 1015.3
20260507043437 59 0.0 0.0 0.00 0.00 0.00 88 1015.2
20260507042438 60 0.0 0.0 0.00 0.00 0.00 87 1015.1
20260507041438 60 0.0 0.0 0.00 0.00 0.00 87 1015.1
20260507040437 60 0.0 0.0 0.00 0.00 0.00 87 1015.0
20260507035437 60 0.0 0.0 0.00 0.00 0.00 86 1015.1
20260507034437 60 0.0 0.0 0.00 0.00 0.00 86 1015.0
20260507033437 60 0.0 0.0 0.00 0.00 0.00 87 1015.1
20260507032437 60 0.0 0.0 0.00 0.00 0.00 87 1015.1
20260507031437 60 0.0 0.0 0.00 0.00 0.00 87 1015.2
20260507030437 60 0.0 0.0 0.00 0.00 0.00 87 1015.1
20260507025438 60 0.0 0.0 0.00 0.00 0.00 87 1015.1
20260507024438 60 0.0 0.0 0.00 0.00 0.00 87 1015.1
20260507023437 60 0.0 0.0 0.00 0.00 0.00 86 1015.1
20260507022438 61 0.0 0.0 0.00 0.00 0.00 86 1015.1
20260507021437 61 0.0 0.0 0.00 0.00 0.00 87 1015.1
20260507020437 61 0.0 0.0 0.00 0.00 0.00 87 1015.0
20260507015437 61 0.0 0.0 0.00 0.00 0.00 87 1015.0
20260507014438 61 0.0 0.0 0.00 0.00 0.00 87 1014.9
20260507013438 61 0.0 0.0 0.00 0.00 0.00 87 1014.9
20260507012437 61 0.0 0.0 0.00 0.00 0.00 87 1014.9
20260507011438 62 0.0 0.0 0.00 0.00 0.00 86 1014.9
20260507010437 62 0.0 0.0 0.00 0.00 0.00 86 1014.9
20260507005438 62 0.0 0.0 0.00 0.00 0.00 87 1014.9
20260507004438 62 0.0 0.0 0.00 0.00 0.00 86 1014.9
20260507003437 62 0.0 0.0 0.00 0.00 0.00 86 1015.1
20260507002439 62 0.0 0.0 0.00 0.00 0.00 86 1014.9
20260507001437 62 0.0 0.0 0.00 0.00 0.00 86 1014.9
20260507000438 62 0.0 0.0 0.00 0.00 0.00 86 1014.9
20260506235438 62 0.0 0.0 0.00 0.00 0.00 84 1014.8
20260506234438 62 0.0 0.0 0.00 0.00 0.00 85 1014.8
20260506233437 62 0.0 0.0 0.00 0.00 0.00 85 1014.9
20260506232437 63 0.0 0.0 0.00 0.00 0.00 85 1014.9
20260506231438 63 0.0 0.0 0.00 0.00 0.00 83 1014.9
20260506230437 63 0.0 0.0 0.00 0.00 0.00 82 1014.8
20260506225438 64 0.0 0.0 0.00 0.00 0.00 82 1014.9
20260506224437 64 0.0 0.0 0.00 0.00 0.00 81 1015.1
20260506223437 65 0.0 0.0 0.00 0.00 0.00 75 1015.1
20260506222437 65 0.0 0.0 0.00 0.00 0.00 76 1015.0
20260506221437 65 0.0 0.0 0.00 0.00 0.00 76 1014.9
20260506220437 65 0.0 0.0 0.00 0.00 0.00 78 1014.8
20260506215437 66 0.0 0.0 0.00 0.00 0.00 81 1015.0
20260506214438 66 0.0 0.0 0.00 0.00 0.00 94 1014.9